[Date Prev][Date Next][Thread Prev][Thread Next] - [Date Index][Thread Index][Author Index]
2 Line ISS Keps 10-19
- Subject: [sarex] 2 Line ISS Keps 10-19
- From: "Dave Larsen PhD" <doc@xxxxxxxxxxx>
- Date: Wed, 18 Oct 2006 19:56:09 -0700
ISS
1 25544U 98067A 06291.94347929 .00016873 00000-0 10505-3 0 8869
2 25544 051.6335 269.8593 0013010 112.4559 342.8466 15.76990497452684
----
Sent via sarex@amsat.org. Opinions expressed are those of the author.
Not an AMSAT member? Join now to support the amateur satellite program!
Subscription settings: http://amsat.org/mailman/listinfo/sarex
AMSAT Home